When you browse on this site, cookies collect data to enhance your experience and personalize the content and advertising you see.
Visit our Privacy Policy to learn more. By continuing to use the site, you agree to this use of cookies and data.
  • In Latvia
  • List of Countries
  • For 7 days
  • Water Temperature
  • Weather Map
  • Weather Widgets
  • user-avatar
    Login

    Hourly Weather Ali Sabieh

    Today, 30 May, Saturday

    Time Temperature Precipitation Wind Pressure Humidity
    00:00 +32°C° 0 mm 2 mps 694 mmHg 40%
    01:00 +32°C° 0 mm 1 mps 694 mmHg 41%
    02:00 +31°C° 0 mm 1 mps 693 mmHg 43%
    03:00 +31°C° 0 mm 1 mps 693 mmHg 44%
    04:00 +30°C° 0 mm 1 mps 693 mmHg 44%
    05:00 +28°C° 0 mm 0 mps 693 mmHg 44%
    06:00 +27°C° 0 mm 0 mps 694 mmHg 43%
    07:00 +32°C° 0 mm 2 mps 694 mmHg 35%
    08:00 +35°C° 0 mm 3 mps 695 mmHg 27%
    09:00 +37°C° 0 mm 4 mps 696 mmHg 20%
    10:00 +38°C° 0 mm 4 mps 696 mmHg 17%
    11:00 +40°C° 0 mm 5 mps 696 mmHg 15%
    12:00 +41°C° 0 mm 5 mps 695 mmHg 13%
    13:00 +42°C° 0 mm 5 mps 695 mmHg 13%
    14:00 +42°C° 0 mm 4 mps 694 mmHg 12%
    15:00 +43°C° 0 mm 4 mps 694 mmHg 11%
    16:00 +42°C° 0 mm 4 mps 694 mmHg 13%
    17:00 +41°C° 0 mm 4 mps 694 mmHg 15%
    18:00 +40°C° 0 mm 5 mps 694 mmHg 18%
    19:00 +38°C° 0 mm 4 mps 694 mmHg 25%
    20:00 +36°C° 0 mm 3 mps 694 mmHg 32%
    21:00 +35°C° 0 mm 2 mps 695 mmHg 38%
    22:00 +34°C° 0 mm 2 mps 695 mmHg 42%
    23:00 +32°C° 0 mm 2 mps 695 mmHg 45%

    Tomorrow, 31 May, Sunday

    Time Temperature Precipitation Wind Pressure Humidity
    00:00 +31°C° 0 mm 2 mps 695 mmHg 48%
    01:00 +31°C° 0 mm 2 mps 694 mmHg 49%
    02:00 +30°C° 0 mm 2 mps 694 mmHg 49%
    03:00 +30°C° 0 mm 1 mps 694 mmHg 50%
    04:00 +30°C° 0 mm 1 mps 694 mmHg 50%
    05:00 +29°C° 0 mm 1 mps 694 mmHg 49%
    06:00 +29°C° 0 mm 1 mps 695 mmHg 49%
    07:00 +31°C° 0 mm 2 mps 696 mmHg 41%
    08:00 +34°C° 0 mm 2 mps 696 mmHg 33%
    09:00 +37°C° 0 mm 3 mps 697 mmHg 26%
    10:00 +38°C° 0 mm 3 mps 697 mmHg 22%
    11:00 +39°C° 0 mm 3 mps 697 mmHg 19%
    12:00 +40°C° 0 mm 3 mps 696 mmHg 16%
    13:00 +40°C° 0 mm 3 mps 696 mmHg 15%
    14:00 +42°C° 0 mm 3 mps 695 mmHg 15%
    15:00 +42°C° 0 mm 3 mps 695 mmHg 14%
    16:00 +40°C° 0 mm 3 mps 694 mmHg 18%
    17:00 +40°C° 0 mm 4 mps 694 mmHg 21%
    18:00 +38°C° 0 mm 4 mps 694 mmHg 25%
    19:00 +37°C° 0 mm 3 mps 694 mmHg 30%
    20:00 +35°C° 0 mm 3 mps 695 mmHg 35%
    21:00 +34°C° 0 mm 2 mps 695 mmHg 40%
    22:00 +32°C° 0 mm 2 mps 695 mmHg 40%
    23:00 +32°C° 0 mm 2 mps 695 mmHg 41%

    Day after tomorrow, 1 June, Monday

    Time Temperature Precipitation Wind Pressure Humidity
    00:00 +33°C° 0 mm 3 mps 695 mmHg 41%
    01:00 +32°C° 0 mm 2 mps 694 mmHg 42%
    02:00 +31°C° 0 mm 2 mps 694 mmHg 42%
    03:00 +31°C° 0 mm 1 mps 694 mmHg 42%
    04:00 +31°C° 0 mm 1 mps 694 mmHg 42%
    05:00 +31°C° 0 mm 1 mps 695 mmHg 42%
    06:00 +30°C° 0 mm 1 mps 695 mmHg 43%
    07:00 +32°C° 0 mm 2 mps 695 mmHg 38%
    08:00 +35°C° 0 mm 4 mps 696 mmHg 33%
    09:00 +37°C° 0 mm 5 mps 697 mmHg 29%
    10:00 +39°C° 0 mm 5 mps 696 mmHg 25%
    11:00 +41°C° 0 mm 5 mps 696 mmHg 21%
    12:00 +42°C° 0 mm 5 mps 696 mmHg 17%
    13:00 +42°C° 0 mm 5 mps 695 mmHg 16%
    14:00 +43°C° 0 mm 4 mps 695 mmHg 15%
    15:00 +43°C° 0 mm 4 mps 694 mmHg 14%
    16:00 +42°C° 0 mm 4 mps 694 mmHg 17%
    17:00 +41°C° 0 mm 4 mps 693 mmHg 19%
    18:00 +40°C° 0 mm 4 mps 693 mmHg 22%
    19:00 +37°C° 0 mm 4 mps 693 mmHg 29%
    20:00 +36°C° 0 mm 3 mps 694 mmHg 36%
    21:00 +34°C° 0 mm 2 mps 694 mmHg 44%
    22:00 +34°C° 0 mm 2 mps 694 mmHg 45%
    23:00 +32°C° 0 mm 2 mps 694 mmHg 47%

    2 June, Tuesday

    Time Temperature Precipitation Wind Pressure Humidity
    00:00 +32°C° 0 mm 2 mps 693 mmHg 48%
    01:00 +32°C° 0 mm 2 mps 693 mmHg 47%
    02:00 +32°C° 0 mm 1 mps 693 mmHg 46%
    03:00 +32°C° 0 mm 1 mps 693 mmHg 44%
    04:00 +32°C° 0 mm 2 mps 693 mmHg 43%
    05:00 +32°C° 0 mm 2 mps 693 mmHg 42%
    06:00 +33°C° 0 mm 3 mps 694 mmHg 41%
    07:00 +34°C° 0 mm 3 mps 694 mmHg 36%
    08:00 +35°C° 0 mm 4 mps 695 mmHg 32%
    09:00 +37°C° 0 mm 5 mps 696 mmHg 27%
    10:00 +38°C° 0 mm 4 mps 696 mmHg 24%
    11:00 +40°C° 0 mm 4 mps 695 mmHg 20%
    12:00 +41°C° 0 mm 4 mps 695 mmHg 17%
    13:00 +42°C° 0 mm 4 mps 695 mmHg 16%
    14:00 +42°C° 0 mm 4 mps 694 mmHg 15%
    15:00 +43°C° 0 mm 4 mps 693 mmHg 15%
    16:00 +41°C° 0 mm 4 mps 693 mmHg 19%
    17:00 +40°C° 0 mm 5 mps 693 mmHg 22%
    18:00 +37°C° 0 mm 5 mps 692 mmHg 26%
    19:00 +36°C° 0 mm 5 mps 693 mmHg 32%
    20:00 +34°C° 0 mm 5 mps 693 mmHg 38%
    21:00 +33°C° 0 mm 4 mps 693 mmHg 45%
    22:00 +32°C° 0 mm 4 mps 693 mmHg 45%
    23:00 +32°C° 0 mm 4 mps 693 mmHg 46%

    3 June, Wednesday

    Time Temperature Precipitation Wind Pressure Humidity
    00:00 +30°C° 0 mm 4 mps 693 mmHg 47%
    01:00 +30°C° 0 mm 4 mps 693 mmHg 48%
    02:00 +30°C° 0 mm 3 mps 693 mmHg 50%
    03:00 +30°C° 0 mm 3 mps 693 mmHg 51%
    04:00 +29°C° 0 mm 2 mps 693 mmHg 51%
    05:00 +29°C° 0 mm 2 mps 693 mmHg 51%
    06:00 +29°C° 0 mm 1 mps 693 mmHg 51%
    07:00 +31°C° 0 mm 2 mps 694 mmHg 45%
    08:00 +34°C° 0 mm 3 mps 695 mmHg 38%
    09:00 +35°C° 0 mm 5 mps 695 mmHg 32%
    10:00 +37°C° 0 mm 5 mps 695 mmHg 28%
    11:00 +38°C° 0 mm 4 mps 695 mmHg 23%
    12:00 +41°C° 0 mm 4 mps 695 mmHg 18%
    13:00 +41°C° 0 mm 4 mps 694 mmHg 19%
    14:00 +41°C° 0 mm 4 mps 693 mmHg 20%
    15:00 +41°C° 0 mm 4 mps 693 mmHg 21%
    16:00 +40°C° 0 mm 5 mps 692 mmHg 29%
    17:00 +37°C° 0 mm 5 mps 692 mmHg 36%
    18:00 +36°C° 0 mm 6 mps 692 mmHg 44%
    19:00 +34°C° 0 mm 6 mps 692 mmHg 48%
    20:00 +33°C° 0 mm 5 mps 693 mmHg 51%
    21:00 +30°C° 0 mm 5 mps 693 mmHg 55%
    22:00 +30°C° 0 mm 5 mps 693 mmHg 58%
    23:00 +29°C° 0 mm 4 mps 693 mmHg 62%

    4 June, Thursday

    Time Temperature Precipitation Wind Pressure Humidity
    00:00 +29°C° 0 mm 4 mps 693 mmHg 66%
    01:00 +28°C° 0 mm 4 mps 693 mmHg 70%
    02:00 +28°C° 0 mm 3 mps 693 mmHg 74%
    03:00 +27°C° 0 mm 3 mps 692 mmHg 79%
    04:00 +27°C° 0 mm 2 mps 693 mmHg 78%
    05:00 +27°C° 0 mm 1 mps 693 mmHg 77%
    06:00 +27°C° 0 mm 1 mps 694 mmHg 75%
    07:00 +29°C° 0 mm 2 mps 694 mmHg 65%
    08:00 +31°C° 0 mm 2 mps 695 mmHg 54%
    09:00 +33°C° 0 mm 3 mps 696 mmHg 43%
    10:00 +35°C° 0 mm 3 mps 696 mmHg 37%
    11:00 +36°C° 0 mm 4 mps 696 mmHg 31%
    12:00 +38°C° 0 mm 4 mps 695 mmHg 25%
    13:00 +37°C° 0.1 mm 4 mps 695 mmHg 30%
    14:00 +36°C° 0.1 mm 4 mps 694 mmHg 35%
    15:00 +35°C° 0.1 mm 4 mps 693 mmHg 40%
    16:00 +34°C° 0 mm 4 mps 694 mmHg 41%
    17:00 +34°C° 0 mm 4 mps 694 mmHg 43%
    18:00 +34°C° 0 mm 4 mps 694 mmHg 44%
    19:00 +33°C° 0 mm 4 mps 694 mmHg 49%
    20:00 +32°C° 0 mm 5 mps 694 mmHg 54%
    21:00 +30°C° 0 mm 5 mps 694 mmHg 59%
    22:00 +30°C° 0 mm 5 mps 694 mmHg 59%
    23:00 +29°C° 0 mm 4 mps 694 mmHg 58%
    Show more